Wind_Speed
33 37 36 37 40 40 42 43 41 51 55 58 57 56 55 56 58 60 60 61 61 61 62 62 65 65 65 64 65 66 65 63 63 68 68 76 86 82 80 79 81 81 81 80
31 34 38 40 41 40 39 37 37 41 50 58 58 59 59 57 56 57 58 59 59 60 58 59 59 58 57 57 54 51 51 51 50 51 52 54 50 45 45 41 46 48 48 52
29 31 37 38 39 38 36 33 34 33 37 44 50 55 54 56 55 56 56 55 54 53 52 52 51 49 45 43 46 42 42 39 38 38 43 39 30 29 28 26 27 31 33 33
27 29 33 38 40 40 39 40 37 34 35 37 39 40 43 46 49 51 50 49 47 43 43 43 42 39 40 40 40 34 33 32 31 30 30 26 29 28 30 31 26 19 17 14
20 25 29 32 37 40 40 40 40 40 39 40 41 42 44 44 45 41 37 36 36 35 35 36 36 35 34 33 31 29 29 28 29 31 28 23 20 23 23 23 25 28 27 28
20 21 23 27 30 31 31 33 34 33 33 32 33 33 33 32 31 28 28 28 28 31 33 34 35 33 30 30 30 26 27 27 27 29 28 21 20 20 21 24 25 25 24 23
16 19 22 24 26 27 27 30 28 29 30 29 29 27 25 25 25 24 24 24 29 31 32 31 30 29 28 28 27 28 29 30 29 27 25 21 21 20 20 20 20 21 23 24
14 16 18 20 22 24 25 24 25 25 24 25 24 24 23 22 21 21 24 26 23 23 22 21 19 22 24 25 28 30 34 33 32 30 24 21 19 19 21 21 21 21 22 23
17 18 19 20 22 23 24 25 25 25 24 24 22 20 19 17 18 19 19 18 20 18 17 19 19 20 22 24 24 26 29 30 29 25 23 22 23 23 23 21 21 22 24 25
19 20 22 23 24 25 25 25 23 24 21 21 20 22 21 19 17 17 17 17 17 17 18 20 22 22 22 21 22 23 19 20 21 23 23 24 25 24 24 25 27 27 28 30
22 24 26 26 27 27 27 24 23 21 21 23 22 24 23 22 20 20 21 23 21 21 21 22 22 22 22 22 23 22 22 23 23 24 25 26 26 26 26 29 31 32 34 36
23 28 28 29 30 28 24 20 18 18 21 22 23 24 25 25 24 26 28 27 27 27 25 24 23 23 25 25 25 26 27 27 26 26 27 27 28 28 30 32 34 36 37 39
26 30 31 33 30 24 21 19 19 19 21 21 23 25 24 25 27 29 30 26 27 27 27 25 24 24 26 27 27 27 28 28 27 28 28 29 29 30 32 35 37 39 41 41
31 33 34 31 28 24 21 21 19 18 20 22 23 24 25 27 28 25 24 22 24 25 25 26 26 24 26 27 27 27 28 28 28 29 29 29 30 32 35 38 40 42 43 46
35 34 34 32 28 26 24 22 20 20 20 22 23 24 27 30 30 23 21 23 24 25 26 27 26 25 26 27 27 26 27 26 27 28 29 31 33 35 37 41 43 45 46 49
38 36 35 33 30 27 26 24 22 20 17 21 25 27 32 32 27 23 21 22 24 24 23 25 25 27 29 29 30 30 30 31 30 29 31 32 34 38 41 44 46 48 51 53
41 39 37 35 33 30 28 25 22 20 19 19 24 28 31 28 24 25 23 21 22 23 24 27 27 28 30 30 30 30 31 31 30 31 33 36 39 41 44 47 49 49 51 54
45 42 40 37 35 33 30 27 25 24 23 20 19 22 24 25 24 25 26 26 25 25 26 26 28 29 30 30 29 27 27 29 31 32 36 40 42 45 48 48 48 50 53 56
49 46 44 41 38 36 34 31 28 27 27 26 23 21 22 22 26 28 28 27 26 28 28 29 30 30 32 32 32 33 34 35 35 37 40 43 46 48 48 48 51 54 56 59
52 51 48 46 43 40 37 35 33 31 29 29 27 25 22 22 25 30 31 29 30 30 30 29 29 31 34 35 36 37 38 39 41 43 45 48 49 48 50 53 55 58 61 63
57 53 53 50 47 44 42 40 39 36 34 32 33 31 30 29 26 24 28 32 32 34 33 34 34 34 35 36 37 40 43 46 48 49 50 50 51 52 55 58 60 61 63 66
55 56 58 55 53 51 48 45 43 42 39 37 36 37 36 34 32 32 30 29 31 34 38 38 40 42 43 43 42 43 43 43 45 47 49 50 51 53 56 59 61 63 66 69
51 56 55 56 57 56 53 51 49 47 45 43 41 40 41 40 39 38 38 37 37 37 37 39 40 41 43 46 48 48 49 50 51 51 52 53 56 59 61 62 64 66 70 72
47 50 56 56 53 54 56 56 53 52 51 49 47 46 45 45 46 46 45 44 45 43 44 44 44 44 46 48 50 51 52 53 54 55 57 59 61 62 63 64 67 70 72 74
41 46 50 54 56 55 53 54 55 55 55 54 53 52 52 51 51 51 51 51 50 50 50 50 51 52 53 55 57 58 58 58 58 59 59 62 62 62 63 65 68 71 73 69
39 41 44 49 54 56 56 55 56 57 57 57 57 57 56 56 56 57 57 56 56 56 56 55 55 57 59 62 62 60 60 60 61 60 59 60 60 62 65 68 70 72 69 63
36 39 41 44 50 54 57 58 57 57 59 59 60 60 60 60 60 60 60 60 60 60 59 59 63 65 66 66 62 60 60 61 60 59 61 61 62 64 67 69 69 65 60 60
Wind_Direction
210 210 215 217 218 220 221 222 219 217 218 217 222 228 231 233 238 244 249 253 255 257 259 262 263 266 267 270 271 273 278 279 281 283 288 288 291 291 286 282 282 283 281 280
213 217 215 214 217 222 226 229 231 229 223 225 228 230 233 238 241 246 252 254 255 258 261 262 264 266 269 272 274 275 276 279 282 291 297 302 302 293 289 291 288 285 279 278
211 213 216 214 214 215 214 214 216 218 223 229 232 235 239 240 243 247 251 258 259 260 262 262 264 268 270 271 272 275 275 280 290 303 309 326 348 348 333 313 305 298 291 285
208 209 212 213 212 212 211 214 220 223 226 229 231 234 239 242 246 249 252 259 259 257 258 262 264 267 269 269 269 269 276 282 294 307 316 339 353 5 25 23 16 353 354 353
205 206 211 214 217 219 222 224 226 228 231 233 236 238 239 241 245 249 245 248 250 253 257 261 264 266 267 264 261 268 280 281 293 303 314 331 345 6 14 24 26 33 34 35
204 207 210 211 215 219 222 226 228 230 233 232 231 230 230 233 236 237 238 241 245 252 258 259 262 269 265 263 263 274 280 277 288 298 305 318 339 354 2 6 12 15 19 20
181 191 199 204 209 214 218 222 221 223 224 227 225 220 217 221 225 227 232 242 252 254 259 264 262 259 260 260 269 277 281 277 286 289 291 306 323 334 342 347 355 359 359 356
161 164 166 174 180 186 192 195 196 196 197 202 206 208 208 211 217 229 239 248 255 264 266 265 265 261 259 264 273 279 280 281 280 287 287 294 303 316 325 332 340 343 345 343
184 187 183 183 183 185 187 190 195 196 197 199 200 206 208 220 229 238 240 251 256 260 265 267 268 264 259 264 265 265 272 275 277 273 280 294 304 313 318 319 320 321 327 327
205 204 201 201 199 198 196 194 191 186 196 204 211 214 213 223 231 235 241 249 258 264 269 268 265 261 261 263 263 269 266 268 268 275 287 294 301 308 310 310 313 311 313 314
222 221 218 211 201 189 189 191 196 207 208 204 216 215 221 228 237 242 253 260 264 267 271 274 264 263 256 259 261 265 267 270 275 281 286 292 297 303 304 303 303 305 304 305
225 219 210 196 189 189 195 205 212 211 212 218 220 228 233 239 251 260 263 262 264 267 264 266 260 263 257 260 265 269 267 270 279 283 286 294 298 298 300 304 304 306 304 303
217 212 197 190 190 193 202 213 212 215 220 228 231 237 244 253 261 266 263 261 258 260 261 264 265 260 256 265 270 272 274 278 281 286 292 296 296 299 302 304 306 305 303 304
207 198 193 197 199 198 206 211 214 219 223 230 238 247 255 266 275 262 259 258 255 259 264 261 264 267 269 272 275 276 278 282 288 293 292 293 296 299 301 305 306 306 305 305
200 198 197 204 206 208 210 214 219 222 232 240 245 252 261 271 277 272 263 256 254 257 259 260 262 264 267 272 277 282 283 289 288 288 288 292 298 301 304 304 304 305 306 307
201 203 203 209 212 213 216 222 227 233 238 246 249 256 264 268 265 267 256 254 257 259 262 264 268 271 274 278 279 279 279 281 283 288 293 298 300 302 302 302 304 307 307 310
204 207 209 213 217 218 221 225 232 243 248 257 254 252 256 258 255 264 263 261 261 263 268 269 270 271 275 277 280 281 283 283 284 290 296 300 300 300 301 301 305 308 311 313
205 209 213 214 218 223 225 228 232 239 245 251 258 257 254 249 255 261 265 267 272 274 273 273 274 275 275 277 283 286 287 289 292 295 298 299 299 299 299 301 306 310 313 315
210 211 215 220 222 226 228 231 235 239 243 248 257 256 253 253 258 258 259 260 263 270 275 280 282 284 285 284 283 284 284 287 291 292 293 295 295 297 299 304 308 311 314 316
217 217 218 221 225 229 232 235 237 242 247 248 251 253 256 261 266 262 258 262 264 265 268 273 279 283 283 284 287 288 289 288 286 288 291 293 296 299 303 305 308 312 313 316
222 223 223 225 228 230 234 237 240 243 246 247 247 250 254 257 263 267 260 259 263 266 268 272 276 280 281 286 287 287 285 284 287 289 292 294 298 301 303 305 308 311 314 315
225 227 227 227 230 233 236 239 241 243 245 248 248 249 251 256 260 264 267 268 269 269 271 274 275 279 283 287 289 289 293 296 294 294 297 300 303 305 306 307 310 313 314 315
227 227 228 229 230 233 236 239 241 244 246 248 249 250 252 255 258 260 265 268 270 272 275 278 281 284 287 288 289 289 288 290 293 297 300 302 303 304 306 309 311 313 314 315
228 227 227 228 230 232 235 238 241 242 244 246 248 250 253 256 259 261 262 266 268 272 274 275 278 283 288 291 291 291 292 293 295 296 297 299 300 302 305 308 310 311 312 315
229 228 228 230 231 231 234 236 239 241 242 245 248 251 255 257 260 263 265 268 270 270 274 276 278 282 287 291 293 292 292 293 294 295 296 296 298 300 304 306 308 310 313 315
231 230 231 232 233 234 235 236 238 240 244 247 250 253 257 260 262 264 266 267 268 272 275 276 278 282 286 289 290 289 289 290 291 292 295 297 298 300 303 306 309 312 314 315
235 236 234 235 235 236 239 240 240 242 245 249 252 254 256 258 261 263 265 268 271 273 276 278 279 281 284 286 287 287 289 290 289 290 294 295 298 302 304 307 310 314 315 315
Height
10399 10405 10411 10417 10424 10430 10438 10446 10455 10466 10475 10481 10485 10493 10498 10505 10510 10513 10517 10520 10523 10523 10524 10525 10524 10525 10524 10524 10521 10518 10517 10509 10505 10495 10489 10472 10454 10440 10429 10418 10411 10406 10400 10397
10395 10400 10405 10411 10417 10425 10433 10440 10448 10456 10464 10469 10476 10483 10489 10494 10499 10502 10505 10507 10509 10510 10511 10511 10511 10510 10511 10510 10507 10506 10501 10498 10493 10484 10475 10455 10436 10421 10412 10404 10395 10387 10384 10380
10390 10395 10400 10406 10413 10420 10428 10435 10441 10448 10455 10460 10466 10473 10478 10482 10486 10490 10493 10495 10495 10497 10497 10497 10498 10498 10498 10496 10494 10494 10490 10487 10482 10474 10463 10450 10430 10415 10403 10396 10389 10384 10378 10372
10387 10392 10397 10403 10409 10416 10422 10429 10436 10442 10447 10453 10458 10464 10468 10472 10476 10479 10481 10484 10484 10484 10484 10486 10486 10487 10486 10485 10484 10484 10480 10477 10472 10466 10458 10446 10432 10420 10407 10399 10391 10384 10377 10371
10386 10390 10395 10399 10405 10411 10417 10424 10430 10435 10440 10445 10449 10454 10458 10462 10466 10469 10471 10472 10472 10474 10475 10476 10476 10476 10476 10475 10475 10474 10470 10467 10463 10458 10451 10442 10433 10423 10414 10405 10397 10387 10381 10376
10384 10388 10392 10396 10401 10406 10412 10417 10422 10427 10432 10436 10441 10445 10449 10453 10457 10460 10461 10463 10465 10466 10466 10467 10467 10467 10466 10466 10465 10464 10461 10459 10456 10451 10444 10438 10430 10421 10414 10407 10399 10393 10388 10384
10382 10385 10389 10392 10397 10401 10407 10411 10415 10420 10424 10429 10434 10438 10442 10446 10450 10452 10454 10456 10457 10458 10458 10458 10457 10457 10456 10456 10456 10455 10453 10451 10447 10445 10440 10433 10426 10420 10414 10408 10402 10396 10391 10386
10382 10385 10388 10391 10394 10398 10402 10407 10411 10416 10421 10425 10430 10434 10438 10441 10444 10447 10449 10450 10450 10450 10450 10449 10447 10447 10448 10448 10448 10447 10444 10441 10439 10437 10433 10428 10423 10417 10412 10406 10400 10395 10391 10387
10380 10383 10387 10390 10393 10398 10402 10406 10410 10414 10418 10422 10426 10430 10433 10436 10439 10441 10442 10442 10443 10444 10443 10442 10441 10440 10440 10440 10440 10438 10436 10433 10432 10430 10427 10422 10417 10413 10408 10403 10399 10394 10389 10385
10378 10381 10384 10387 10390 10394 10398 10402 10407 10411 10415 10418 10422 10425 10428 10431 10433 10434 10435 10436 10437 10437 10437 10435 10434 10434 10433 10432 10432 10430 10428 10427 10425 10423 10419 10415 10411 10407 10402 10398 10393 10389 10384 10380
10374 10377 10379 10382 10386 10390 10394 10399 10403 10407 10410 10414 10417 10420 10423 10425 10426 10427 10428 10429 10430 10430 10429 10428 10427 10426 10426 10426 10424 10424 10423 10421 10418 10416 10413 10410 10405 10401 10396 10393 10389 10384 10378 10373
10368 10369 10373 10378 10382 10387 10391 10395 10399 10402 10405 10409 10411 10414 10417 10418 10420 10421 10421 10421 10421 10421 10421 10420 10420 10419 10419 10418 10417 10417 10416 10413 10411 10409 10406 10402 10398 10394 10390 10386 10381 10375 10370 10365
10361 10364 10370 10374 10379 10383 10387 10390 10393 10397 10400 10403 10406 10409 10411 10412 10413 10413 10412 10413 10412 10412 10412 10412 10412 10411 10411 10410 10410 10409 10407 10405 10403 10400 10397 10394 10390 10386 10382 10377 10372 10367 10362 10357
10354 10359 10366 10371 10375 10379 10382 10385 10388 10391 10395 10397 10400 10402 10403 10404 10404 10404 10404 10404 10404 10404 10404 10404 10405 10405 10404 10403 10402 10401 10399 10397 10395 10392 10389 10386 10382 10378 10373 10368 10363 10358 10353 10347
10350 10355 10360 10365 10370 10374 10378 10381 10384 10386 10389 10391 10394 10395 10396 10396 10396 10396 10396 10397 10397 10398 10398 10398 10398 10397 10396 10395 10394 10393 10391 10388 10386 10384 10381 10378 10374 10370 10365 10359 10353 10348 10343 10337
10344 10349 10354 10359 10364 10369 10372 10376 10378 10380 10382 10384 10386 10387 10389 10389 10390 10390 10391 10390 10390 10391 10391 10390 10390 10389 10388 10387 10386 10384 10382 10380 10377 10375 10373 10369 10365 10360 10355 10350 10344 10339 10333 10326
10337 10342 10347 10352 10357 10361 10365 10369 10372 10374 10376 10377 10378 10380 10380 10382 10382 10383 10383 10384 10384 10384 10383 10382 10382 10381 10380 10378 10377 10376 10374 10372 10370 10367 10364 10360 10356 10351 10346 10341 10336 10329 10322 10314
10327 10334 10339 10345 10349 10353 10357 10361 10364 10367 10369 10371 10372 10373 10373 10375 10376 10376 10376 10376 10375 10375 10375 10376 10375 10374 10372 10370 10369 10368 10366 10363 10361 10358 10355 10350 10346 10342 10336 10330 10324 10318 10310 10301
10319 10324 10330 10336 10340 10344 10349 10353 10356 10358 10360 10363 10365 10365 10366 10367 10368 10369 10369 10369 10368 10368 10367 10366 10366 10365 10363 10362 10360 10358 10356 10354 10351 10348 10344 10340 10335 10330 10324 10318 10312 10305 10297 10289
10308 10315 10320 10325 10330 10335 10340 10343 10347 10350 10353 10354 10356 10357 10358 10359 10360 10360 10361 10361 10360 10360 10359 10358 10357 10356 10355 10353 10351 10349 10346 10344 10341 10337 10333 10329 10324 10318 10311 10305 10299 10292 10284 10276
10298 10303 10310 10315 10320 10325 10328 10333 10336 10340 10343 10345 10347 10349 10351 10352 10352 10351 10351 10351 10351 10350 10350 10349 10348 10347 10345 10343 10340 10338 10335 10332 10329 10325 10321 10317 10311 10305 10298 10292 10285 10278 10271 10262
10287 10292 10298 10303 10308 10314 10317 10321 10325 10328 10332 10335 10337 10339 10340 10341 10342 10342 10342 10341 10341 10340 10340 10338 10337 10336 10334 10331 10329 10326 10323 10320 10317 10313 10308 10303 10297 10291 10285 10278 10271 10264 10256 10247
10274 10281 10285 10291 10297 10301 10305 10309 10313 10317 10320 10322 10325 10327 10328 10330 10330 10331 10331 10331 10330 10329 10328 10327 10325 10323 10321 10318 10316 10314 10311 10308 10304 10300 10295 10290 10284 10278 10271 10264 10257 10249 10241 10231
10261 10266 10272 10278 10283 10288 10292 10296 10300 10304 10307 10309 10312 10314 10315 10316 10317 10318 10318 10318 10318 10317 10316 10315 10313 10311 10309 10306 10303 10299 10296 10293 10289 10286 10281 10276 10270 10265 10258 10251 10243 10235 10226 10216
10249 10254 10259 10265 10270 10275 10279 10283 10287 10290 10292 10295 10298 10300 10301 10303 10304 10304 10304 10305 10305 10304 10303 10301 10299 10297 10295 10291 10288 10284 10281 10278 10275 10271 10268 10262 10257 10251 10245 10238 10230 10220 10211 10200
10239 10243 10248 10253 10257 10261 10265 10269 10272 10276 10278 10281 10283 10285 10287 10288 10289 10289 10289 10289 10289 10288 10288 10286 10285 10282 10280 10276 10274 10270 10267 10264 10260 10257 10253 10248 10243 10237 10230 10223 10215 10205 10195 10186
10230 10232 10236 10240 10244 10248 10251 10255 10259 10262 10265 10267 10268 10270 10271 10272 10273 10273 10273 10274 10274 10273 10272 10271 10268 10266 10264 10261 10258 10255 10251 10247 10244 10242 10238 10233 10228 10222 10215 10207 10199 10190 10181 10173